Location: Brachbach
(49.1847°N, 9.7240°E)
Time: 05:23:12
(UTC+00:00)

PCSat - Pass Details

Date: 13 March 2026
Orbit: 780 x 790 km, 67.1° (Epoch: 13 April)

Event Time Altitude Azimuth Distance (km) Brightness Sun altitude
Exits shadow 23:22:26 11° 28° (NNE) 2,321 12.5 -43.4°
Drops below altitude 10° 23:22:29 10° 28° (NNE) 2,339 12.5 -43.4°
Sets 23:25:04 0° 34° (NE) 3,296 13.3 -43.4°
